LAPAN-A3

Last updated on Mon Sep 21 2026 00:02:46 GMT+0000 (Coordinated Universal Time)

1 41603U 16040E 26263.59837463 .00002424 00000+0 76762-4 0 9992 2 41603 97.1574 256.6854 0011298 41.5524 318.6576 15.33625911569436
UTC large
Height (km)
Speed (km/s)
/
Latitude / Longitude
Inclination (degrees)
Orbital Period (minutes)
Azimuth
Elevation
Range (km)
Doppler Factor

Next 0 passes for location: London (51.5072 / 0.1276)

No passes found over London.
LAPAN-A3